Zurück zum Katalog

STARLINK-36857

AktivKommunikationVLEO
NORAD 68518·PAYLOAD·🇺🇸 United States

Gestartet Mar 30, 2026 von Cape Canaveral Space Force Station

Loading…

Nächste Überflüge (nächste 24 Stunden)

TLE

AktuellSource: CelesTrak SupGP

Epoche: Sep 15, 2026, 03:19 UTC

1 68518C 26068L   26258.13868056  .00051407  00000+0  15187-2 0  2588
2 68518  53.1597 324.6398 0000976  77.3417   9.1783 15.34369258    11

Verfolge STARLINK-36857 in Echtzeit mit AllMySat

Download on the App Store